Home > Time Zones > World Clock > Weather > Macau > Macau > Past weeks

Flag for Macau Weather past 2 weeks in Macau, Macau

Now
70 °F

Fog.


Feels Like: 70 °F
Forecast: 68 / 75 °F
Wind: 8 mph from Southeast

Location: Taipa

Current Time: Mar 31, 2015 at 4:37:22 AM

Latest Report: Mar 31, 2015 at 4:00 AM


Visibility: 2 mi

Pressure: 29.89 "Hg

Humidity: 100%

Dew point: 70 °F

Location of MacauLocation

Historic Weather in Macau — Graph

°F

Macau temperature yesterday

Maximum temperature yesterday: 75 °F (at 11:30 AM)
Minimum temperature yesterday: 70 °F (at 12:00 AM)
Average temperature yesterday: 72 °F

Past Weeks' High & Low Weather Summary

 TemperatureHumidityPressure
High77 °F (Mar 18, 1:00 PM)100% (Mar 16, 3:30 AM)30.27 "Hg (Mar 16, 3:30 AM)
Low63 °F (Mar 25, 12:30 PM)61% (Mar 23, 3:00 PM)29.80 "Hg (Mar 17, 4:00 PM)
Average69 °F89%30.03 "Hg
* Reported Mar 16 3:00 AM — Mar 31 3:00 AM, Macau, Weather by CustomWeather, © 2015

Note: Actual official high and low records may vary slightly from our data, if they occured in-between our weather recording intervals... More about our weather records

Advertising

Macau weather history for previous 24 hours

 ConditionsComfort  
Time TempWeatherWind HumidityBarometerVisibility
3:00 AM
Tue, Mar 31
70 °FFog.8 mph100%29.89 "Hg2 mi
2:30 AM72 °FFog.6 mph94%29.89 "Hg2 mi
2:00 AM72 °FFog.6 mph94%29.89 "Hg2 mi
1:30 AM70 °FFog.7 mph100%29.92 "Hg2 mi
1:00 AM72 °FFog.6 mph94%29.92 "Hg3 mi
12:30 AM72 °FFog.8 mph94%29.92 "Hg3 mi
12:00 AM70 °FFog.6 mph100%29.92 "Hg3 mi
11:30 PM
Mon, Mar 30
72 °FFog.8 mph94%29.92 "Hg2 mi
11:00 PM72 °FFog.9 mph94%29.95 "Hg2 mi
10:30 PM72 °FFog.9 mph94%29.95 "Hg2 mi
10:00 PM72 °FFog.10 mph94%29.92 "Hg2 mi
9:30 PM72 °FFog.10 mph94%29.95 "Hg2 mi
9:00 PM72 °FFog.12 mph94%29.95 "Hg2 mi
8:30 PM72 °FFog.12 mph94%29.92 "Hg2 mi
8:00 PM72 °FFog.12 mph94%29.92 "Hg3 mi
7:30 PM72 °FFog.9 mph94%29.92 "Hg3 mi
7:00 PM72 °FPassing clouds.10 mph94%29.92 "Hg4 mi
6:30 PM72 °FFog.9 mph94%29.92 "Hg3 mi
6:00 PM72 °FFog.8 mph94%29.92 "Hg3 mi
5:30 PM73 °FFog.10 mph89%29.92 "Hg3 mi
5:00 PM73 °FFog.13 mph89%29.89 "Hg3 mi
4:30 PM73 °FPassing clouds.12 mph89%29.92 "Hg4 mi
4:00 PM73 °FScattered clouds.10 mph89%29.92 "Hg4 mi
3:30 PM73 °FPassing clouds.10 mph89%29.92 "Hg4 mi
3:00 PM73 °FScattered clouds.9 mph89%29.92 "Hg4 mi
2:30 PM75 °FScattered clouds.7 mph83%29.95 "Hg4 mi
2:00 PM75 °FScattered clouds.6 mph83%29.95 "Hg4 mi
1:30 PM75 °FFog.7 mph83%29.95 "Hg3 mi
1:00 PM75 °FFog.8 mph83%29.98 "Hg3 mi
12:30 PM75 °FFog.8 mph83%29.98 "Hg3 mi
12:00 PM75 °FFog.7 mph83%30.01 "Hg3 mi
11:30 AM75 °FFog.8 mph83%30.01 "Hg3 mi
10:30 AM73 °FFog.3 mph83%30.01 "Hg3 mi
10:00 AM72 °FFog.5 mph88%30.01 "Hg3 mi
9:30 AM72 °FFog.8 mph88%30.01 "Hg2 mi
9:00 AM72 °FFog.9 mph88%30.01 "Hg2 mi
8:30 AM72 °FFog.8 mph88%30.01 "Hg3 mi
8:00 AM72 °FFog.8 mph88%29.98 "Hg3 mi
7:30 AM70 °FFog.9 mph94%29.98 "Hg3 mi
7:00 AM70 °FFog.7 mph94%29.98 "Hg3 mi
6:30 AM70 °FFog.10 mph94%29.95 "Hg3 mi
6:00 AM70 °FPassing clouds.8 mph94%29.92 "Hg4 mi
5:00 AM70 °FPassing clouds.6 mph94%29.92 "Hg4 mi
4:00 AM70 °FPassing clouds.8 mph94%29.92 "Hg4 mi
Weather by CustomWeather, © 2015

See weather overviewHow to use our weather pages